Location: Argonnex
(45.9500°N, 6.1333°E)
Time: 15:53:50
(UTC+00:00)

Feng Yun 1-1 Rocket - Visible Passes

Search period start: 30 September 2023 00:00
Search period end: 10 October 2023 00:00
Orbit: 829 x 933 km, 99.1° (Epoch: 30 September)

Date Brightness Start Highest point End Pass type
(mag) Time Alt. Az. Time Alt. Az. Time Alt. Az.
30 Sep 4.2 18:59:37 12° SSE 19:05:03 80° ENE 19:10:46 10° NNW visible
30 Sep 6.7 20:43:20 10° SW 20:46:56 17° W 20:50:31 10° NW visible
01 Oct 4.2 18:56:58 13° SSE 19:02:12 76° ENE 19:07:54 10° NNW visible
01 Oct 6.7 20:40:15 10° SW 20:44:02 18° W 20:47:48 10° NW visible
02 Oct 4.2 18:54:18 14° SSE 18:59:21 72° ENE 19:05:00 10° N visible
02 Oct 6.6 20:37:12 10° SW 20:41:08 19° W 20:45:02 10° NW visible
03 Oct 4.2 18:51:38 15° SSE 18:56:29 69° ENE 19:02:07 10° N visible
03 Oct 6.5 20:34:18 10° SW 20:38:14 20° W 20:42:17 10° NW visible
04 Oct 4.3 18:48:58 16° SSE 18:53:38 65° ENE 18:59:14 10° N visible
04 Oct 6.5 20:31:38 12° SW 20:35:21 21° W 20:39:31 10° NW visible
05 Oct 4.3 18:46:18 17° SSE 18:50:46 62° ENE 18:56:20 10° N visible
05 Oct 6.4 20:28:58 13° SW 20:32:27 22° W 20:36:44 10° NW visible
06 Oct 4.3 18:43:39 18° SE 18:47:55 59° ENE 18:53:26 10° N visible
06 Oct 6.3 20:26:19 15° SW 20:29:33 23° W 20:33:57 10° NW visible
07 Oct 4.4 18:40:59 19° SE 18:45:05 56° ENE 18:50:33 10° N visible
07 Oct 6.2 20:23:39 16° SW 20:26:40 24° W 20:31:10 10° NW visible
08 Oct 4.4 18:38:19 19° SE 18:42:13 53° ENE 18:47:39 10° N visible
08 Oct 6.2 20:20:59 18° SW 20:23:46 25° W 20:28:22 10° NW visible
09 Oct 4.5 18:35:40 20° SE 18:39:22 50° ENE 18:44:45 10° N visible
09 Oct 6.1 20:18:19 19° SW 20:20:53 27° W 20:25:34 10° NW visible
